GFSNGP_250_rhum_366.txt.gz
RH
15 17 18 24 36 42 44 49 44 44 37 35 34 30 26 27 37 58 81 92 99 96 98 98 98 99 98 96 90 86 79 74 72 75 78 80 79 81 79 75 73 71 68 71
18 20 21 22 28 38 35 39 43 40 45 43 36 33 34 36 35 34 37 53 72 89 97 100 100 98 97 97 97 98 98 97 96 95 88 85 86 82 81 84 88 90 88 93
18 20 20 24 26 29 29 33 50 51 46 44 39 37 34 34 36 35 33 33 38 49 71 94 99 98 98 100 100 100 99 100 100 94 91 93 90 86 82 81 86 91 94 97
16 19 20 23 25 27 25 30 40 52 54 52 48 44 39 36 36 34 35 33 31 30 32 38 47 57 69 82 90 95 97 97 95 98 100 99 91 88 89 90 90 96 98 93
17 18 19 21 25 26 28 34 37 47 54 52 55 52 47 41 33 35 37 35 34 35 33 32 32 34 34 36 46 59 76 76 78 93 99 98 98 92 86 89 90 92 94 98
18 18 18 21 25 27 30 33 37 40 44 46 46 54 42 44 36 33 33 36 42 39 31 34 29 26 26 27 28 28 27 30 39 41 57 74 88 90 88 85 84 86 89 90
18 20 21 24 28 30 36 31 36 39 41 40 41 41 42 42 38 34 30 28 31 35 41 46 38 30 27 25 26 25 25 25 23 24 27 30 40 59 73 78 72 76 82 77
17 18 20 23 28 32 34 37 37 36 37 37 38 39 38 34 32 31 30 27 26 27 30 33 35 34 34 30 26 23 22 22 20 20 21 21 23 23 35 47 56 64 66 65
16 17 19 21 23 25 27 29 31 35 36 36 36 37 39 39 38 38 36 34 32 30 28 27 26 24 21 21 22 22 21 20 19 19 19 20 19 18 19 25 42 54 67 69
19 18 18 18 21 25 28 29 31 31 32 35 38 41 43 43 42 40 40 37 36 35 33 31 30 28 26 22 20 18 17 17 18 19 18 17 17 17 17 17 17 24 41 54
21 21 20 20 20 20 21 24 29 33 35 37 38 40 40 42 40 38 37 37 36 35 33 30 29 29 26 23 21 19 17 15 14 14 14 13 12 11 13 14 15 16 17 23
22 23 23 24 23 22 21 22 22 24 27 31 32 33 34 34 35 34 34 34 34 34 31 28 25 24 19 17 16 15 14 13 12 11 11 10 10 10 10 10 10 12 14 15
23 24 25 26 27 28 27 26 25 24 23 24 24 24 30 30 32 30 31 31 31 32 33 30 28 30 26 22 20 18 17 16 14 13 12 11 9 8 8 8 9 9 10 11
28 27 27 27 29 30 31 32 32 34 32 30 29 28 25 26 27 28 27 27 26 27 30 31 31 32 29 26 24 21 19 17 15 13 12 11 9 8 8 8 8 7 7 8
27 28 30 32 32 32 32 34 34 35 35 35 35 36 38 34 32 30 30 28 26 24 24 24 22 23 24 23 21 20 18 16 14 13 11 10 9 8 8 7 6 6 6 7
31 32 30 33 34 37 36 35 32 31 34 32 31 30 30 31 29 28 29 29 27 23 23 22 20 21 21 20 20 19 18 17 15 12 10 9 8 8 7 7 6 6 5 6
24 25 29 33 37 33 33 31 30 28 27 30 28 25 25 27 25 25 25 25 24 21 22 22 18 19 19 18 18 18 18 17 16 14 11 9 8 8 7 6 6 6 5 5
25 27 29 30 26 23 23 27 30 29 27 26 26 25 24 24 24 22 22 22 21 20 19 23 18 17 16 17 18 16 17 17 15 14 11 9 8 8 7 5 5 5 4 4
27 26 25 25 28 27 25 24 23 22 23 24 24 23 22 22 22 22 20 20 17 16 16 21 15 15 14 14 15 13 14 15 14 13 11 9 8 7 6 5 4 4 4 4
22 21 21 21 20 23 24 22 21 19 18 18 18 18 19 19 19 20 20 20 16 18 19 17 16 13 14 14 13 12 12 13 13 12 10 8 7 6 6 6 5 5 4 4
15 14 14 14 12 9 10 11 12 11 10 10 12 12 13 13 12 13 15 15 12 12 15 15 15 13 12 13 13 12 11 12 11 11 10 8 7 6 6 6 5 5 5 4
15 15 14 14 12 11 9 8 8 8 9 8 7 8 8 8 7 8 8 10 10 9 11 12 11 12 12 12 10 9 11 10 10 10 9 8 7 6 6 5 5 5 5 4
14 13 12 11 10 9 8 8 7 7 7 6 6 6 6 7 7 6 6 6 8 8 8 9 10 9 10 10 8 8 10 9 9 9 8 7 6 6 5 5 5 5 5 5
14 12 11 10 9 8 8 7 7 7 6 6 6 6 7 6 5 6 7 6 6 6 7 7 8 8 9 8 8 8 9 8 8 8 7 7 6 6 5 6 6 5 5 5
13 11 9 8 7 7 6 6 5 5 5 5 6 6 6 6 6 5 5 6 6 6 6 6 6 7 8 8 7 8 7 8 8 7 7 6 6 6 5 6 6 5 6 6
12 10 8 6 6 6 6 6 5 5 5 5 5 5 5 5 5 5 5 5 5 5 5 5 6 6 6 7 7 7 7 7 7 6 6 5 6 5 5 6 6 6 6 6
8 7 6 6 5 5 5 5 5 5 4 4 4 5 4 4 4 4 5 5 5 5 5 5 6 6 6 7 7 7 7 6 6 6 6 6 5 5 5 6 7 6 6 7

GFSNGP_250_rhum_372.txt.gz
RH
15 15 18 20 21 22 24 26 25 28 31 37 52 57 66 66 63 55 53 58 52 60 62 59 88 96 100 100 100 100 100 100 96 100 100 100 100 100 100 100 100 100 100 100
13 15 17 18 19 20 24 27 26 28 32 36 42 58 66 75 66 56 54 51 47 55 54 60 72 97 100 100 100 100 100 100 100 99 100 100 100 100 100 100 100 100 100 100
13 15 16 16 17 19 22 25 27 28 31 40 53 70 74 75 79 64 58 54 50 51 55 55 67 75 92 98 100 100 99 100 100 98 94 98 100 100 100 100 100 100 100 100
14 16 17 16 16 19 21 22 26 29 33 40 52 66 99 87 77 71 66 56 56 53 50 52 63 74 76 85 97 100 100 100 100 100 100 95 94 96 100 100 100 100 100 100
14 17 18 18 17 18 21 24 27 31 34 38 48 66 84 100 100 97 84 65 61 61 55 47 45 45 49 63 81 90 96 98 99 99 100 99 94 94 96 99 100 100 100 100
16 18 19 18 19 20 22 23 24 28 32 38 46 52 67 77 93 98 87 81 75 72 59 56 52 48 46 47 46 47 58 73 85 95 96 94 95 97 93 90 87 92 100 100
16 19 20 19 19 20 22 26 28 28 31 36 42 48 51 62 75 91 91 95 79 63 59 56 54 57 56 53 48 47 42 38 39 50 70 88 94 91 86 86 85 80 75 79
17 17 20 22 21 21 21 24 26 28 29 30 34 37 42 46 52 62 77 75 79 82 81 76 69 60 58 54 55 59 54 48 45 41 36 35 47 72 80 76 76 76 72 66
19 18 19 20 22 24 24 23 24 27 30 33 32 34 39 43 44 45 47 50 53 55 60 62 66 65 59 57 57 52 48 46 43 40 35 34 32 29 28 35 47 58 57 54
20 19 19 20 20 22 23 24 24 25 25 26 29 35 37 37 38 40 43 45 46 48 51 52 52 51 50 48 44 42 40 41 39 37 36 32 30 28 28 27 24 22 22 23
20 22 21 22 20 20 22 23 24 25 25 25 26 29 30 32 36 39 40 41 43 43 43 41 42 38 36 34 33 30 29 26 26 26 27 29 27 25 23 22 22 24 23 21
24 25 26 25 24 24 24 22 22 24 26 27 28 27 28 26 29 31 31 33 37 37 35 34 37 36 34 34 33 31 32 32 31 28 27 25 23 22 22 20 19 18 17 17
19 23 23 24 28 28 30 29 26 26 25 24 25 25 28 29 28 27 26 24 23 22 24 25 28 31 30 32 33 30 31 32 31 30 29 28 28 27 26 25 23 22 21 19
20 18 22 24 24 24 24 28 31 32 32 31 28 28 23 23 24 25 24 26 26 26 24 23 24 23 22 25 26 24 23 25 26 27 26 26 25 23 21 20 20 17 16 14
24 26 23 20 20 22 22 22 21 23 25 26 26 25 28 30 26 23 23 25 26 24 21 21 21 19 22 25 24 20 19 20 20 19 18 18 18 19 19 19 18 18 17 15
11 14 15 17 17 16 17 18 19 18 20 21 22 24 22 20 19 18 18 21 26 26 21 18 17 16 20 22 22 19 17 18 19 18 15 16 17 16 16 15 14 14 14 14
17 14 14 13 15 16 18 19 18 17 15 14 14 14 16 21 23 20 17 16 17 18 17 16 15 15 17 18 19 18 16 17 18 18 17 17 16 16 16 15 14 13 12 12
22 25 26 24 23 19 14 13 14 14 14 14 14 13 12 12 12 11 13 15 17 17 17 18 17 16 17 17 18 18 17 15 17 18 16 15 16 16 14 13 13 13 13 12
17 17 16 16 16 17 17 16 14 12 11 11 11 10 10 9 9 9 10 9 8 10 11 13 14 14 15 15 16 16 15 14 14 15 16 15 14 14 14 13 12 11 11 11
14 13 12 11 11 12 11 10 10 9 9 9 9 9 8 7 7 8 8 8 8 8 8 8 9 11 12 12 13 14 13 13 13 13 13 14 13 12 11 10 10 9 10 10
15 14 13 12 11 10 10 9 8 7 6 7 7 7 6 6 7 7 6 6 6 6 7 7 6 6 6 8 10 12 11 11 10 10 9 10 10 10 9 9 9 9 9 9
17 15 13 12 11 9 9 8 7 6 6 6 6 5 6 5 6 6 6 6 5 6 5 5 5 5 6 7 6 7 7 7 8 8 9 10 10 9 9 8 9 10 9 9
15 15 13 11 10 9 7 6 6 6 6 5 5 5 5 5 5 5 6 6 5 5 5 5 5 5 5 5 5 6 6 6 7 8 9 9 9 8 8 9 10 9 9 9
13 12 11 9 8 8 6 5 4 5 5 5 5 4 4 4 4 4 5 6 5 5 5 5 5 5 5 5 5 5 6 6 7 8 8 9 8 9 10 9 9 8 9 8
12 12 12 10 9 8 7 5 4 4 4 4 4 4 4 4 4 4 4 4 4 5 5 4 4 5 5 5 5 5 6 7 7 7 7 8 9 8 8 9 9 8 8 7
7 6 7 7 7 7 7 6 5 4 4 4 4 4 4 4 4 4 4 4 4 4 4 4 5 5 5 6 5 6 6 7 7 6 7 8 8 7 7 8 8 7 7 6
6 5 6 7 7 7 7 6 6 5 5 4 4 4 4 4 3 4 4 4 4 4 4 5 5 5 6 6 6 6 6 7 7 7 7 7 7 7 7 7 6 6 6 7

GFSNGP_250_rhum_375.txt.gz
RH
12 13 14 13 17 20 21 27 28 28 30 30 43 63 64 64 58 55 58 61 58 54 54 52 64 79 86 87 99 100 100 100 100 100 100 100 100 100 100 100 100 100 100 100
12 13 14 16 18 21 20 22 26 32 32 36 36 42 50 50 50 54 62 60 60 56 54 56 59 62 63 72 72 99 100 100 100 100 100 100 100 100 100 100 100 100 100 100
14 13 14 16 21 24 23 23 24 28 30 30 33 36 43 39 41 55 61 64 65 62 60 61 62 60 49 52 70 88 94 100 100 100 100 100 100 100 100 100 100 100 100 100
15 14 14 16 20 23 24 24 25 28 30 31 32 36 41 37 47 63 81 70 60 64 68 60 55 70 56 47 57 81 90 94 100 100 100 100 100 100 100 100 100 100 100 100
17 16 16 16 20 22 21 23 26 28 31 34 35 35 37 44 54 66 98 89 66 73 76 64 60 69 70 62 54 65 85 91 96 100 100 100 100 100 100 100 100 100 100 100
18 18 18 18 19 22 22 21 23 27 31 33 33 35 39 45 56 65 78 85 62 87 86 85 78 73 65 61 58 55 67 84 96 94 94 100 100 100 100 99 100 100 100 100
15 18 20 18 20 21 21 23 25 26 28 33 34 39 42 42 54 63 73 82 71 68 79 85 81 77 73 71 68 62 50 54 65 85 88 86 86 89 94 96 92 93 99 100
15 17 20 21 20 21 22 22 22 24 27 29 31 32 34 36 44 53 61 84 75 74 74 70 81 83 79 74 61 57 60 54 49 54 66 77 88 87 81 83 85 85 83 87
16 18 20 21 22 22 22 24 23 22 23 27 31 33 33 31 33 39 46 57 74 86 83 85 81 80 74 69 72 65 58 52 48 46 43 38 44 53 66 75 74 74 77 81
16 16 18 19 21 23 22 22 24 24 23 23 25 28 32 35 38 40 42 44 48 53 71 78 81 77 77 68 52 56 55 53 51 48 49 49 42 38 36 40 53 72 68 66
17 18 18 18 18 20 23 23 23 23 24 24 23 24 25 27 31 35 39 40 44 44 48 50 59 56 55 58 56 50 49 45 41 41 42 40 41 41 37 32 28 27 27 30
19 21 21 20 18 19 20 20 22 24 25 25 25 25 26 25 27 30 31 34 38 41 42 39 44 42 40 44 47 45 42 40 39 34 32 30 28 26 26 27 28 28 26 24
11 13 14 16 20 20 21 20 20 22 24 24 25 24 25 26 26 27 28 29 30 32 33 32 34 36 33 34 36 34 34 33 35 35 31 31 29 27 25 25 23 22 21 21
14 12 12 13 12 13 14 17 21 22 20 22 23 24 22 26 26 26 25 26 26 27 25 25 26 26 24 30 35 34 30 30 32 32 32 32 31 29 28 27 25 23 22 20
17 20 20 16 15 16 15 14 13 15 18 20 20 20 23 21 20 22 25 26 27 26 25 26 26 22 23 26 28 26 24 23 25 27 28 27 28 27 26 26 26 25 23 22
14 16 17 20 20 19 20 20 18 15 14 14 15 16 16 18 19 19 18 20 23 24 23 23 24 22 24 25 26 26 22 19 19 22 21 22 20 19 20 20 20 20 21 21
22 19 17 15 16 17 17 16 15 14 13 12 12 12 14 14 14 12 11 12 16 17 18 18 18 17 17 18 20 24 23 21 19 20 20 19 19 18 18 18 17 16 16 17
18 20 20 19 17 13 11 11 11 11 11 10 10 10 10 10 10 9 9 9 9 10 10 12 14 13 14 15 16 17 17 16 15 16 16 16 16 17 17 17 16 15 14 15
13 15 14 15 16 15 14 12 10 9 9 8 8 8 8 7 7 8 9 9 9 8 7 8 9 9 10 11 12 12 12 12 13 14 16 13 14 14 14 13 13 12 12 12
11 11 12 12 13 14 13 12 12 10 8 7 6 6 6 6 6 6 6 6 7 7 8 8 8 6 6 6 6 9 11 13 12 10 11 12 10 10 10 11 10 9 10 10
13 13 13 13 11 11 11 11 9 7 6 6 5 5 6 6 5 5 6 5 6 6 6 6 6 6 6 6 7 6 6 6 7 7 8 9 9 9 9 9 11 11 10 11
14 14 12 10 9 9 9 8 7 6 5 4 5 5 5 5 5 5 5 4 5 5 5 6 6 5 6 8 6 5 4 5 5 6 7 8 9 10 10 10 10 10 10 10
12 12 12 10 10 8 8 8 7 6 5 5 4 4 4 4 4 4 4 4 5 5 5 5 5 5 5 4 5 6 5 5 5 6 6 7 8 8 9 9 9 9 9 9
9 8 8 8 8 8 8 7 7 6 5 5 4 4 4 4 4 4 4 4 4 5 5 5 4 4 4 4 5 5 5 6 6 6 6 6 6 7 7 8 8 8 8 8
7 6 5 6 7 8 8 7 7 6 6 5 5 4 4 4 4 4 4 4 4 4 4 4 5 4 4 5 4 4 5 6 6 6 6 6 7 7 8 8 8 8 8 8
7 8 7 7 8 9 8 8 8 7 6 6 5 5 4 4 4 4 4 4 4 4 4 4 4 4 4 5 5 5 5 5 5 6 6 7 7 7 7 8 8 8 8 7
9 10 8 7 6 7 8 8 8 8 7 6 6 6 5 5 5 5 5 5 4 4 4 5 5 5 5 6 6 6 6 6 6 7 7 7 7 7 7 7 7 6 6 6

GFSNGP_250_rhum_381.txt.gz
RH
9 10 11 12 14 14 14 14 16 17 16 15 19 20 21 20 22 30 26 43 53 45 41 40 42 42 42 42 47 46 46 66 81 68 91 100 100 100 100 100 100 100 100 100
9 10 12 13 15 16 16 15 17 18 17 19 22 22 22 21 22 29 40 37 50 64 51 51 45 47 45 46 44 43 63 60 82 82 82 85 98 100 100 100 100 100 100 100
10 10 12 14 15 17 16 15 16 18 19 23 26 28 28 27 26 30 40 39 38 52 59 55 50 46 48 47 46 45 40 44 60 79 78 74 92 100 100 100 100 100 100 100
12 11 12 14 16 18 18 17 16 18 21 27 30 31 36 34 33 32 42 44 43 52 57 69 54 50 51 53 65 65 67 64 62 62 76 90 91 100 98 100 100 100 100 100
13 13 13 13 16 18 20 20 18 20 22 29 34 36 34 38 41 40 44 51 48 52 57 59 60 54 50 53 55 64 78 80 85 77 65 65 73 95 100 100 100 100 100 100
13 15 15 14 16 19 20 21 20 21 24 27 33 37 39 41 42 41 44 50 51 52 56 64 60 58 63 61 59 61 57 59 68 62 60 62 82 98 100 100 100 100 100 100
12 13 15 17 17 18 21 22 22 21 23 26 29 31 35 37 45 47 48 52 62 62 62 70 74 77 76 73 74 73 72 66 78 67 67 67 77 76 92 100 88 92 100 100
12 12 14 16 17 18 20 22 22 22 23 24 26 28 30 30 33 35 36 41 44 46 56 64 62 64 66 79 83 75 71 71 77 76 72 90 84 81 80 82 89 89 91 100
14 14 14 14 16 17 18 20 23 24 22 22 24 25 25 26 27 28 30 33 38 40 48 60 55 50 49 49 55 62 66 60 67 75 71 67 72 82 87 89 93 100 97 100
14 14 15 16 15 15 18 18 19 22 24 23 23 23 24 24 23 24 26 27 28 29 31 36 38 38 40 43 40 47 54 67 66 67 64 63 62 61 60 60 63 66 73 84
21 20 17 15 14 16 14 16 20 19 20 22 22 22 22 23 23 22 23 24 26 27 28 30 32 38 42 44 46 48 52 54 65 74 73 71 68 64 62 60 57 55 51 52
10 14 17 21 22 16 15 15 13 15 20 20 20 22 20 20 21 22 21 21 22 24 26 30 30 31 36 42 44 46 51 58 58 64 71 69 70 73 69 68 64 60 58 56
14 14 16 15 19 19 19 19 15 14 13 12 17 19 20 20 19 19 20 21 20 20 20 23 27 27 28 32 37 39 42 46 56 64 61 62 64 66 70 70 72 75 69 66
19 18 15 19 17 18 17 14 15 18 16 13 12 12 12 18 20 20 20 19 18 18 18 19 20 22 27 28 29 30 30 33 41 46 51 57 60 64 62 63 61 62 66 64
9 11 15 16 18 18 16 14 12 12 12 15 14 12 14 12 11 14 18 19 18 18 18 19 18 18 21 23 24 26 29 28 30 32 35 39 45 51 55 57 52 53 58 63
11 11 10 10 10 14 16 16 14 12 12 11 11 11 10 10 11 12 12 14 14 16 18 19 18 17 19 20 21 21 21 22 26 26 25 28 29 30 32 34 36 40 44 43
16 18 18 13 11 10 9 10 11 12 12 11 11 11 10 9 9 9 9 11 13 12 11 13 15 15 18 20 21 20 20 19 19 21 22 23 26 26 28 29 29 30 31 27
9 10 11 13 13 12 11 11 10 10 10 10 10 9 9 8 8 8 8 8 8 8 10 12 10 11 13 13 14 15 16 17 18 19 19 20 21 23 23 24 23 22 21 21
10 10 11 12 13 12 12 11 10 9 8 8 8 7 7 7 6 6 6 6 7 7 8 8 8 9 10 9 10 12 13 15 16 16 16 15 17 19 19 19 20 19 18 19
11 11 11 11 12 12 10 9 9 9 8 7 6 6 6 5 5 5 5 6 6 6 6 6 6 6 7 9 10 10 10 9 9 10 11 12 11 12 14 14 14 16 16 16
10 10 10 9 9 10 10 10 9 8 8 7 6 6 5 5 5 5 5 6 5 5 5 6 6 7 7 7 8 8 8 8 8 8 8 9 9 10 11 13 15 15 15 16
8 8 8 7 7 7 8 8 8 8 8 7 7 6 5 5 4 4 5 5 5 5 5 4 5 5 5 5 6 7 7 6 6 7 7 8 9 9 8 8 8 9 10 11
8 7 7 8 9 8 8 8 8 8 8 8 7 7 6 5 5 5 5 5 5 5 5 5 5 5 4 5 5 5 5 6 6 6 7 7 7 7 6 6 6 7 8 8
8 8 8 9 9 9 7 6 6 7 8 8 8 8 7 7 6 6 5 5 5 5 5 5 5 5 5 5 5 5 5 5 5 5 5 5 5 5 5 6 6 6 6 6
9 10 11 10 10 8 7 8 7 7 7 7 7 8 8 8 7 7 7 6 6 5 5 5 5 5 5 5 5 5 5 5 5 5 5 5 5 5 5 5 6 6 6 6
13 11 10 10 10 8 8 8 8 8 7 7 7 6 6 6 6 7 7 7 6 7 6 6 6 5 5 5 5 5 5 5 5 5 5 5 6 6 5 6 6 6 6 7
19 16 11 10 10 10 10 9 8 7 7 7 7 7 7 7 6 6 6 6 6 6 7 7 6 6 6 7 7 7 7 6 6 6 6 6 6 6 7 7 7 7 7 8

GFSNGP_250_rhum_384.txt.gz
RH
8 8 10 11 12 12 12 14 15 15 14 14 15 16 15 15 15 15 16 16 20 25 27 33 40 41 40 39 38 40 41 47 67 90 100 100 100 100 100 100 100 100 100 100
9 10 11 12 13 13 14 15 16 16 15 14 16 17 15 16 19 20 19 18 20 26 32 39 45 45 42 41 43 41 42 41 62 92 83 100 100 100 100 100 100 100 100 100
10 11 12 13 14 15 16 16 17 18 16 15 16 18 18 18 21 24 23 22 24 29 40 46 43 50 48 48 49 49 45 44 45 69 89 92 100 100 100 100 100 100 100 100
10 10 12 14 15 17 17 18 18 19 18 17 17 20 21 23 23 25 25 27 26 32 46 53 55 55 48 54 51 49 52 49 46 48 80 80 88 99 100 100 100 100 100 100
9 10 11 14 15 16 18 19 19 19 19 19 19 21 25 27 25 26 26 28 28 38 48 56 62 55 53 57 59 57 51 48 47 49 64 66 70 84 100 100 100 100 100 100
10 11 11 13 15 16 17 18 19 20 20 19 20 21 27 32 30 26 30 30 35 36 52 62 57 57 57 57 61 60 57 53 51 49 46 52 76 82 86 88 99 100 100 98
12 12 12 12 14 16 16 16 18 20 22 21 21 22 27 31 32 31 28 35 44 43 37 46 56 52 53 57 57 61 61 55 52 49 48 49 54 56 59 67 73 81 86 91
15 14 12 11 12 14 16 16 16 17 20 21 22 22 24 30 34 31 33 32 37 47 40 42 49 55 50 48 50 54 54 59 62 55 50 46 46 54 60 56 57 74 89 88
9 14 16 14 12 12 12 16 17 16 18 20 20 22 25 26 28 34 32 34 37 37 44 48 44 52 59 62 58 56 55 52 54 58 60 59 55 46 44 43 46 65 81 80
14 16 14 14 18 14 12 12 13 16 16 18 20 20 21 25 26 26 29 33 36 37 38 39 44 48 45 52 56 57 56 55 56 61 60 64 62 62 62 58 62 58 59 67
12 13 17 20 14 15 19 14 13 12 14 15 16 19 20 20 23 23 24 24 26 30 38 40 40 42 48 54 54 59 58 53 59 58 55 51 50 51 57 56 62 61 65 68
14 15 14 14 14 17 18 16 15 15 13 12 14 14 15 20 20 21 22 22 23 24 24 27 32 38 44 48 59 65 69 66 64 67 61 60 59 56 57 60 57 61 69 74
13 14 18 20 19 14 12 16 19 15 13 15 13 12 13 13 15 19 20 21 21 22 23 23 24 28 33 34 38 45 47 51 59 59 59 65 58 56 57 57 56 57 59 65
12 14 13 16 16 16 16 13 13 15 17 13 13 14 14 11 13 14 14 17 18 20 21 22 23 26 28 28 29 32 36 40 41 39 43 47 46 42 42 42 45 50 52 55
8 8 9 11 13 15 15 13 12 12 11 13 13 11 11 12 14 12 12 13 13 15 17 18 19 20 21 24 27 28 30 32 34 33 36 39 43 40 42 45 47 48 48 48
10 9 9 10 11 11 11 11 11 10 10 9 10 11 11 10 10 12 14 11 10 12 14 14 14 17 20 19 19 20 23 25 26 27 28 30 35 39 42 41 40 42 48 48
13 14 12 11 12 13 11 10 10 9 9 9 9 8 8 9 10 10 10 10 10 10 10 11 12 14 15 17 17 18 18 18 20 23 24 25 25 25 27 32 36 38 38 36
9 10 10 10 11 11 11 11 10 9 9 8 8 7 7 6 6 8 10 9 8 10 10 10 9 11 12 14 14 15 16 17 18 19 20 20 21 22 23 24 24 26 28 28
11 10 10 10 10 10 10 10 10 10 9 8 8 7 6 6 5 5 6 6 6 7 7 7 8 10 11 10 10 12 14 14 14 14 15 16 18 19 19 18 19 20 20 22
12 10 9 9 8 7 7 8 9 9 9 8 7 7 6 6 5 5 5 5 6 6 6 6 7 8 8 9 10 10 10 10 11 13 14 14 14 15 16 16 17 17 17 17
11 10 9 7 7 8 8 8 8 8 8 8 8 7 7 6 6 5 4 4 5 6 7 7 7 7 6 7 7 7 7 8 9 9 10 10 11 13 15 17 18 18 19 19
10 10 9 8 8 8 10 9 7 7 7 8 8 8 8 7 6 5 5 4 4 5 5 6 6 6 5 7 7 7 6 6 6 7 8 9 10 10 10 10 11 13 13 14
12 9 9 10 10 10 8 6 7 7 6 6 7 7 8 8 7 7 6 6 5 5 4 5 5 6 6 6 6 6 6 6 6 7 7 7 7 8 8 7 8 8 9 9
16 11 10 11 11 11 9 7 8 8 7 6 6 6 6 7 8 7 7 7 6 6 5 5 4 4 5 5 5 6 7 7 7 7 6 7 7 6 6 6 6 6 7 7
30 19 16 12 11 11 10 9 8 8 7 7 7 6 6 6 6 6 6 7 7 7 7 6 6 5 5 4 4 4 5 5 5 6 6 6 6 6 7 7 6 6 6 6
32 35 21 18 14 11 10 11 11 9 7 7 7 6 6 6 6 6 6 6 6 6 6 6 7 6 6 6 6 6 5 5 5 5 5 5 5 5 5 6 6 6 6 6
27 33 38 26 20 15 12 11 10 10 9 8 7 8 7 6 6 7 7 6 6 6 6 6 5 5 6 6 6 6 6 6 7 6 6 6 6 6 6 6 6 6 6 6